Preview of NWS' New Version of Forecast
This preview is not operational and should not be used for support decisions.

Regional Weather Roundup (RWR)

Issued by Jackson, KY (JKL)

                            
000
ASUS43 KJKL 200910
RWRJKL

EAST KENTUCKY HOURLY WEATHER ROUNDUP
NATIONAL WEATHER SERVICE JACKSON KY
400 AM EST WED FEB 20 2019

NOTE: "FAIR" INDICATES FEW OR NO CLOUDS BELOW 12,000 FEET WITH
NO SIGNIFICANT WEATHER AND/OR OBSTRUCTIONS TO VISIBILITY.

* THESE REPORTS ARE NOT UNDER NWS QUALITY CONTROL AND MAY NOT
  REPORT WEATHER SUCH AS PRECIPITATION AND FOG.

KYZ079-080-083-085-087-088-110-112-115-119-120-201000
...EASTERN KENTUCKY...
  
CITY           SKY/WX    TMP DP  RH WIND       PRES   REMARKS
JACKSON        RAIN      38  37  97 VRB6      30.02F FOG     WCI  33  
LONDON         LGT RAIN  39  32  76 E7        30.01F WCI  34          
MONTICELLO*    RAIN      41  39  93 VRB6      29.99F                  
WILLIAMSBURG*  CLOUDY    43  43 100 S7        30.02S                  
MIDDLESBORO*   DRIZZLE   44  40  88 S6G21     30.08F                  
HARLAN APT*    CLOUDY    41  38  88 SE12G29   30.05F                  
PIKE CO APT*   CLOUDY    38  38 100 E12       30.07F WCI  31          
BIG SANDY APT* LGT RAIN  38  38 100 E14       30.10F WCI  30          
MOREHEAD APT*  LGT RAIN  34  32  93 E12       30.10F WCI  25          
ASHLAND*       MIX PCPN  34  32  92 NE3       30.20F FOG              
$$

KYZ035-036-041-042-044-050-067-078-099-201000
...CENTRAL KENTUCKY...
  
CITY           SKY/WX    TMP DP  RH WIND       PRES   REMARKS
MT STERLING*   LGT RAIN  34  32  93 E10       30.08F WCI  26          
FLEMING/MASON* MIX PCPN  32  32 100 E10G17    30.10F WCI  24          
DANVILLE*      HVY RAIN  34  34 100 E8        30.02F WCI  27          
LEXINGTON      RAIN      34  31  88 E13       30.04F FOG     WCI  25  
FRANKFORT      RAIN      35  33  92 E14       30.02F FOG     WCI  26  
LOUISVILLE     HVY RAIN  35  32  88 NE8       30.04F FOG     WCI  29  
LEBANON*       CLOUDY    34  34 100 E9G20     29.98F FOG     WCI  26  
GLASGOW*       RAIN      39  39  99 E8        29.94F WCI  34          
BOWLING GREEN  LGT RAIN  40  38  93 NE7       29.93F                  
$$

KYZ091>093-OHZ055-061-077-WVZ005-015-034-035-042-201000
...SOUTHERN OHIO/WEST VIRGINIA...
  
CITY           SKY/WX    TMP DP  RH WIND       PRES   REMARKS
COVINGTON      FRZ RAIN  32  30  92 E14       30.09F FOG     WCI  22  
COLUMBUS       FRZ RAIN  30  28  92 E12       30.25S FOG     WCI  20  
DAYTON         FRZ RAIN  31  28  89 E12       30.17F FOG     WCI  22  
WILMINGTON     FRZ RAIN  30  28  92 E14G21    30.16F FOG     WCI  19  
HUNTINGTON     RAIN      34  32  92 NE7       30.15F FOG     WCI  28  
CHARLESTON     LGT RAIN  37  35  92 E8        30.20F FOG     WCI  31  
PINEVILLE*     MIX PCPN  37  34  90 MISG      30.23F                  
BECKLEY        FRZ RAIN  32  30  92 SE15G36   30.17F WCI  22          
BLUEFIELD      CLOUDY    30  27  88 E9        30.19S WCI  22          
LOGAN CO APT*  RAIN      37  37 100 VRB7G15   30.14F WCI  32          
$$

VAZ002-007-008-TNZ017-027-036-066-071-201000
...SOUTHWEST VIRGINIA/EAST TENNESSEE...
  
CITY           SKY/WX    TMP DP  RH WIND       PRES   REMARKS
WISE*          CLOUDY    36  36 100 SE15G23   30.08F WCI  26          
JONESVILLE*    CLOUDY    41  39  93 E8        30.12F                  
ABINGDON*      CLOUDY    38  33  82 E10G16    30.18F WCI  32          
BRISTOL        MOCLDY    42  35  76 E6        30.16F                  
MORRISTOWN*    CLOUDY    45  39  81 E9        30.07F                  
SEVIERVILLE*   CLOUDY    43  41  93 CALM      30.06F                  
KNOXVILLE      CLOUDY    43  41  93 N3        30.06F                  
LAFOLLETTE*    CLOUDY    41  41 100 CALM      30.10F                  
OAK RIDGE      CLOUDY    43  43 100 CALM      30.09F                  
CROSSVILLE     CLOUDY    41  39  93 S10G22    30.00F                  
NASHVILLE      CLOUDY    47  43  86 S13       29.91S                  
$$

...KEY TO REMARKS...
VSB - VISIBILITY IN MILES
WCI - WIND CHILL INDEX
HX  - HEAT INDEX

$$